Weather at Kristiansand Airport

Public forecast

Using degrees Celsius for public forecast. Weather courtesy of forecast.io.

Current aviation weather report (METAR) for Kristiansand Airport

Retrieved 2021/05/16 03:20 UTC (0 seconds ago):

ENCN 160320Z AUTO 22007KT 9999 FEW009/// OVC026/// 08/06 Q1001

Aviation forecast (TAF) for Kristiansand Airport

Forecast is more than 12 hours old.

Retrieved 2016/05/06 12:39 UTC (5 years ago):

TAF TAF ENCN 061100Z 0612/0712 14008KT 9999 FEW040